Blythe, CA

12:03 AM PST on February 11, 2016 (GMT -0800)
Blythe

Weather History for KBLH - July, 2013

Change the Weather History Date:

Wednesday, July 17, 2013

  Actual Average Record
Temperature  
Mean Temperature 96 °F -  
Max Temperature 109 °F 106 °F 120 °F (2005)
Min Temperature 84 °F 80 °F 70 °F (1993)
Cooling Degree Days 31    
Growing Degree Days 46 (Base 50)    
Moisture  
Dew Point 46 °F    
Average Humidity 18    
Maximum Humidity 26    
Minimum Humidity 14    
Precipitation  
Precipitation 0.00 in - - ()
Sea Level Pressure  
Sea Level Pressure 29.83 in    
Wind  
Wind Speed 6 mph (South)    
Max Wind Speed 10 mph    
Max Gust Speed -    
Visibility 10 miles    
Events      
Averages and records for this station are not official NWS values.
T = Trace of Precipitation, MM = Missing Value Source: NWS Daily Summary

Daily Weather History Graph

Daily Weather History Graph

Search for Another Location

Airport or City:

Trip Planner

Search our weather history database for the weather conditions in past years. The results will help you decide how hot, cold, wet, or windy it might be!

Date:

Astronomy

Jul. 17, 2013 Rise Set
Actual Time 5:41 AM PDT 7:48 PM PDT
Civil Twilight 5:12 AM PDT 8:16 PM PDT
Nautical Twilight 4:38 AM PDT 8:51 PM PDT
Astronomical Twilight 4:01 AM PDT 9:28 PM PDT
Moon 2:46 PM PDT (7/17) 12:45 AM PDT (7/17)
Length of Visible Light 15h 03m
Length of Day
14h 07m
Waxing Gibbous, 68% of the Moon is Illuminated
Jul 17
Waxing Gibbous
Jul 22
Full
Jul 29
Last Quarter
Aug 6
New
Aug 14
First Quarter

Hourly Weather History & Observations

Time (PDT) Temp. Heat Index Dew Point Humidity Pressure Visibility Wind Dir Wind Speed Gust Speed Precip Events Conditions
12:52 AM 91.0 °F - 36.0 °F 14% 29.81 in 10.0 mi South 6.9 mph - N/A   Clear
1:52 AM 87.1 °F - 42.1 °F 21% 29.83 in 10.0 mi SE 6.9 mph - N/A   Clear
2:52 AM 87.1 °F - 39.9 °F 19% 29.83 in 10.0 mi South 9.2 mph - N/A   Clear
3:52 AM 88.0 °F - 35.1 °F 15% 29.83 in 10.0 mi South 8.1 mph - N/A   Clear
4:52 AM 84.0 °F - 42.1 °F 23% 29.84 in 10.0 mi SSE 8.1 mph - N/A   Clear
5:52 AM 88.0 °F - 35.1 °F 15% 29.86 in 10.0 mi South 8.1 mph - N/A   Clear
6:52 AM 87.1 °F - 37.0 °F 17% 29.88 in 10.0 mi North 3.5 mph - N/A   Clear
7:52 AM 87.1 °F - 46.9 °F 25% 29.90 in 10.0 mi SE 3.5 mph - N/A   Clear
8:52 AM 93.9 °F - 37.0 °F 14% 29.91 in 10.0 mi SSE 6.9 mph - N/A   Clear
9:52 AM 97.0 °F - 39.9 °F 14% 29.91 in 10.0 mi Calm Calm - N/A   Clear
10:52 AM 100.0 °F - 46.0 °F 16% 29.90 in 10.0 mi Variable 3.5 mph - N/A   Clear
11:52 AM 100.0 °F 100.2 °F 59.0 °F 26% 29.89 in 10.0 mi Calm Calm - N/A   Clear
12:52 PM 105.1 °F 104.4 °F 57.0 °F 20% 29.87 in 10.0 mi Variable 4.6 mph - N/A   Clear
1:52 PM 105.1 °F 104.4 °F 55.9 °F 20% 29.85 in 10.0 mi SSE 8.1 mph - N/A   Clear
2:52 PM 106.0 °F 105.1 °F 55.9 °F 19% 29.81 in 10.0 mi SSE 3.5 mph - N/A   Partly Cloudy
3:52 PM 108.0 °F 107.3 °F 55.9 °F 18% 29.79 in 10.0 mi Variable 5.8 mph - N/A   Partly Cloudy
4:52 PM 107.1 °F 106.7 °F 55.9 °F 19% 29.76 in 10.0 mi SE 9.2 mph - N/A   Scattered Clouds
5:52 PM 107.1 °F 106.7 °F 57.0 °F 19% 29.75 in 10.0 mi SE 8.1 mph - N/A   Scattered Clouds
6:52 PM 106.0 °F 103.9 °F 53.1 °F 17% 29.75 in 10.0 mi SSE 4.6 mph - N/A   Scattered Clouds
7:52 PM 105.1 °F - 46.9 °F 14% 29.76 in 10.0 mi SW 8.1 mph - N/A   Partly Cloudy
8:52 PM 102.9 °F - 48.0 °F 16% 29.76 in 10.0 mi WSW 10.4 mph - N/A   Clear
9:52 PM 100.9 °F - 43.0 °F 14% 29.78 in 10.0 mi WSW 9.2 mph - N/A   Clear
10:52 PM 99.0 °F - 43.0 °F 15% 29.79 in 10.0 mi WSW 5.8 mph - N/A   Clear
11:52 PM 96.1 °F - 39.9 °F 14% 29.79 in 10.0 mi South 6.9 mph - N/A   Clear